星链-1547 (STARLINK-1547 )

导读 | 豆包AI

STARLINK-1547是美国太空探索技术公司SpaceX星链星座的卫星,于2020年9月3日发射升空,隶属于美国SpaceX打造的星链互联网星座项目。该卫星旨在为全球范围内用户提供低延迟、高速率的卫星互联网接入服务,是星链大规模组网进程中的组成单元,支撑星座全球覆盖的通信服务能力建设。

基本信息
目录编号:
46347
目录名称:
STARLINK-1547
国际标识:
2020-062Y
轨道中心:
EARTH
卫星名称:
星链-1547
卫星全名:
星链-1547 (STARLINK-1547 )
卫星状态:
在轨 (已飞行2039 天)
发射日期:
2020-09-03 UTC
国别 :
美国 (US)
星等 :
--
轨道信息
数据来源 国际轨道数据
星历时间: 2026-04-04T04:00:02+0800
7小时前
查看轨道信息
半长轴: 6738.214km
偏心率: 0.0003607
轨道倾角: 53.034°
近地点辐角 339.658°
升交点赤经 155.085°
平近点角 321.941°
近地点: 357.646km
远地点: 362.508km
周期: 91.744分钟
每日圈数: 15.695878
详细信息
固有亮度:
5
最大亮度:
2.5
卫星平台:
Starlink V1.0
覆盖范围:
全球
运营商:
太空探索技术公司
运营商所在国:
美国
制造商(研发单位):
太空探索技术公司
制造商所在国:
美国
使用方式:
暂无
卫星简介
星链(Starlink)计划是由太空探索技术公司(SpaceX)提出的一个巨型低轨卫星互联网星座项目,计划在2019年至2024年间在太空搭建由约1.2万颗卫星组成的“星链”网络,其中1584颗将部署在地球上空550千米处的近地轨道,并从2020年开始工作。该卫星仍在工作。
2D轨道图
3D轨道图
轨道高度分析图
轨道倾角分析图
轨道综合分析图
查看轨道综合分析图